{"data":{"norad_id":57995,"intl_designator":"2023-153E","name":"STARLINK-30517","alt_names":[],"object_type":"PAYLOAD","status":"ACTIVE","operator":null,"country":"US","launch_date":"2023-10-05","launch_site_code":"AFETR","launch_vehicle":null,"mission":null,"orbit_class":"UNKNOWN","rcs_meters":null,"size_class":null,"mass_kg":null,"dimensions":null,"purposes":["comms"],"wikipedia_slug":null,"has_3d_model":false,"image_url":null,"decayed_at":null,"tle_current":{"epoch":"2026-05-24T23:55:40.076832Z","epoch_age_seconds":85694,"freshness":"FRESH","line1":"1 57995U 23153E   26144.99699163  .00000832  00000+0  39755-4 0  9993","line2":"2 57995  43.0023 356.3617 0001263 262.8353  97.2355 15.27567257146561","mean_motion":15.27567257,"eccentricity":0.0001263,"inclination_deg":43.0023,"raan_deg":356.3617,"arg_perigee_deg":262.8353,"mean_anomaly_deg":97.2355,"bstar":3.9755e-5,"rev_number":14656,"period_min":94.267535088964,"perigee_km":482.22068080797,"apogee_km":483.95382605439,"semimajor_km":6861.2242534312,"source":"CELESTRAK","updated_at":"2026-05-25T13:38:18.490248Z"}}}